Time,TemperatureF,DewpointF,PressureIn,WindDirection,WindDirectionDegrees,WindSpeedMPH,WindSpeedGustMPH,Humidity,HourlyPrecipIn,Conditions,Clouds,dailyrainin,SoftwareType,DateUTC
2013-03-04 13:30:00,62.6,48.7,29.98,ESE,113,5.1,6.4,60,0.00,,,0.00,WUHU216HW,2013-03-04 19:30:00,
2013-03-04 13:31:00,62.6,48.7,29.98,ESE,113,5.1,6.4,60,0.00,,,0.00,WUHU216HW,2013-03-04 19:31:00,
2013-03-04 13:36:00,62.6,48.7,29.98,ESE,113,5.1,6.4,60,0.00,,,0.00,WUHU216HW,2013-03-04 19:36:00,
2013-03-04 14:00:00,62.6,48.7,29.98,NNE,23,8.3,10.4,60,0.00,,,0.00,WUHU216HW,2013-03-04 20:00:00,
2013-03-04 14:05:00,62.6,48.7,29.98,NNE,23,8.3,10.4,60,0.00,,,0.00,WUHU216HW,2013-03-04 20:05:00,
2013-03-04 14:30:00,62.6,50.4,29.98,ESE,113,11.6,14.5,64,0.00,,,0.00,WUHU216HW,2013-03-04 20:30:00,
2013-03-04 14:35:00,62.6,50.4,29.98,ESE,113,11.6,14.5,64,0.00,,,0.00,WUHU216HW,2013-03-04 20:35:00,
2013-03-04 15:00:00,62.6,51.6,29.98,ESE,113,10.7,13.4,67,0.00,,,0.00,WUHU216HW,2013-03-04 21:00:00,
2013-03-04 15:05:00,62.6,51.6,29.98,ESE,113,10.7,13.4,67,0.00,,,0.00,WUHU216HW,2013-03-04 21:05:00,
2013-03-04 15:30:00,62.6,52.4,29.99,ESE,113,6.7,8.4,69,0.00,,,0.00,WUHU216HW,2013-03-04 21:30:00,
2013-03-04 15:35:00,62.6,52.4,29.99,ESE,113,6.7,8.4,69,0.00,,,0.00,WUHU216HW,2013-03-04 21:35:00,
2013-03-04 16:00:00,62.6,53.2,29.98,ESE,113,12.8,16.0,71,0.00,,,0.00,WUHU216HW,2013-03-04 22:00:00,
2013-03-04 16:05:00,62.6,53.2,29.98,ESE,113,12.8,16.0,71,0.00,,,0.00,WUHU216HW,2013-03-04 22:05:00,
2013-03-04 16:30:00,62.6,54.0,29.98,ESE,113,6.9,8.6,73,0.00,,,0.00,WUHU216HW,2013-03-04 22:30:00,
2013-03-04 16:35:00,62.6,54.0,29.98,ESE,113,6.9,8.6,73,0.00,,,0.00,WUHU216HW,2013-03-04 22:35:00,
2013-03-04 17:00:00,62.6,54.0,29.97,ESE,113,9.4,11.8,73,0.00,,,0.00,WUHU216HW,2013-03-04 23:00:00,
2013-03-04 17:05:00,62.6,54.0,29.97,ESE,113,9.4,11.8,73,0.00,,,0.00,WUHU216HW,2013-03-04 23:05:00,
2013-03-04 18:00:00,62.6,54.3,29.97,North,0,0.0,0.0,74,0.00,,,0.00,WUHU216HW,2013-03-05 00:00:00,
2013-03-04 18:05:00,28.8,21.9,29.97,North,0,0.0,0.0,75,0.00,,,0.00,WUHU216HW,2013-03-05 00:05:00,
2013-03-04 18:10:00,28.8,21.9,29.97,North,0,0.0,0.0,75,0.00,,,0.00,WUHU216HW,2013-03-05 00:10:00,
2013-03-04 18:15:00,28.8,21.9,29.98,North,0,0.0,0.0,75,0.00,,,0.00,WUHU216HW,2013-03-05 00:15:00,
2013-03-04 18:20:00,28.6,21.7,29.98,North,0,0.0,0.0,75,0.00,,,0.00,WUHU216HW,2013-03-05 00:20:00,
2013-03-04 18:25:00,28.4,21.8,29.98,North,0,0.0,0.0,76,0.00,,,0.00,WUHU216HW,2013-03-05 00:25:00,
2013-03-04 18:30:00,28.4,21.8,29.98,North,0,0.0,0.0,76,0.00,,,0.00,WUHU216HW,2013-03-05 00:30:00,
2013-03-04 18:35:00,28.4,21.8,29.98,North,0,0.0,0.0,76,0.00,,,0.00,WUHU216HW,2013-03-05 00:35:00,
2013-03-04 18:40:00,28.4,21.8,29.98,North,0,0.0,0.0,76,0.00,,,0.00,WUHU216HW,2013-03-05 00:40:00,
2013-03-04 18:45:00,28.4,21.5,29.98,North,0,0.0,0.0,75,0.00,,,0.00,WUHU216HW,2013-03-05 00:45:00,
2013-03-04 18:50:00,28.4,21.8,29.98,North,0,0.0,0.0,76,0.00,,,0.00,WUHU216HW,2013-03-05 00:50:00,
2013-03-04 18:55:00,28.4,21.5,29.98,North,0,0.0,0.0,75,0.00,,,0.00,WUHU216HW,2013-03-05 00:55:00,
2013-03-04 19:00:00,28.4,21.8,29.99,North,0,0.0,0.0,76,0.00,,,0.00,WUHU216HW,2013-03-05 01:00:00,
2013-03-04 19:05:00,28.4,21.8,29.98,North,0,0.0,0.0,76,0.00,,,0.00,WUHU216HW,2013-03-05 01:05:00,
2013-03-04 19:10:00,28.4,21.8,29.98,North,0,0.0,0.0,76,0.00,,,0.00,WUHU216HW,2013-03-05 01:10:00,
2013-03-04 19:15:00,28.4,22.2,29.98,ENE,68,5.4,6.8,77,0.00,,,0.00,WUHU216HW,2013-03-05 01:15:00,
2013-03-04 19:20:00,28.4,22.2,29.98,ESE,113,5.6,7.9,77,0.00,,,0.00,WUHU216HW,2013-03-05 01:20:00,
2013-03-04 19:25:00,28.4,21.8,29.98,ESE,113,2.5,12.3,76,0.00,,,0.00,WUHU216HW,2013-03-05 01:25:00,
2013-03-04 19:30:00,28.6,22.0,29.98,NE,45,3.4,12.3,76,0.00,,,0.00,WUHU216HW,2013-03-05 01:30:00,
2013-03-04 19:35:00,28.4,21.8,29.98,ENE,68,2.9,10.6,76,0.00,,,0.00,WUHU216HW,2013-03-05 01:35:00,
2013-03-04 19:40:00,28.6,22.0,29.98,SE,135,4.9,10.6,76,0.00,,,0.00,WUHU216HW,2013-03-05 01:40:00,
2013-03-04 19:45:00,28.4,21.8,29.99,ESE,113,6.7,11.8,76,0.00,,,0.00,WUHU216HW,2013-03-05 01:45:00,
2013-03-04 19:50:00,28.6,22.0,29.99,East,90,5.8,11.8,76,0.00,,,0.00,WUHU216HW,2013-03-05 01:50:00,
2013-03-04 19:55:00,28.6,22.0,29.99,ENE,68,7.2,11.5,76,0.00,,,0.00,WUHU216HW,2013-03-05 01:55:00,
2013-03-04 20:00:00,28.6,22.0,29.99,East,90,7.6,10.6,76,0.00,,,0.00,WUHU216HW,2013-03-05 02:00:00,
2013-03-04 20:05:00,28.8,22.1,29.99,SE,135,2.9,9.8,76,0.00,,,0.00,WUHU216HW,2013-03-05 02:05:00,
2013-03-04 20:10:00,28.8,22.1,29.99,SE,135,7.6,9.8,76,0.00,,,0.00,WUHU216HW,2013-03-05 02:10:00,
2013-03-04 20:15:00,28.8,22.1,29.99,ENE,68,8.5,11.1,76,0.00,,,0.00,WUHU216HW,2013-03-05 02:15:00,
2013-03-04 20:20:00,28.8,22.1,29.99,ESE,113,4.7,13.1,76,0.00,,,0.00,WUHU216HW,2013-03-05 02:20:00,
2013-03-04 20:25:00,28.8,22.1,29.99,ESE,113,4.5,13.1,76,0.00,,,0.00,WUHU216HW,2013-03-05 02:25:00,
2013-03-04 20:30:00,29.0,22.3,29.99,ESE,113,6.9,9.5,76,0.00,,,0.00,WUHU216HW,2013-03-05 02:30:00,
2013-03-04 20:35:00,29.0,22.3,29.99,NE,45,5.1,9.5,76,0.00,,,0.00,WUHU216HW,2013-03-05 02:35:00,
2013-03-04 20:40:00,28.8,22.5,29.99,ESE,113,6.9,10.6,77,0.00,,,0.00,WUHU216HW,2013-03-05 02:40:00,
2013-03-04 20:45:00,29.0,22.3,29.98,ESE,113,5.4,10.6,76,0.00,,,0.00,WUHU216HW,2013-03-05 02:45:00,
2013-03-04 20:50:00,29.0,22.7,29.99,ESE,113,3.8,11.8,77,0.00,,,0.00,WUHU216HW,2013-03-05 02:50:00,
2013-03-04 20:55:00,29.0,22.7,29.99,ESE,113,4.7,11.8,77,0.00,,,0.00,WUHU216HW,2013-03-05 02:55:00,
2013-03-04 21:00:00,29.0,22.7,29.99,East,90,8.7,10.9,77,0.00,,,0.00,WUHU216HW,2013-03-05 03:00:00,
2013-03-04 21:05:00,29.2,22.9,29.99,SE,135,4.7,10.9,77,0.00,,,0.00,WUHU216HW,2013-03-05 03:05:00,
2013-03-04 21:10:00,29.2,22.9,30.00,ESE,113,9.4,11.8,77,0.00,,,0.00,WUHU216HW,2013-03-05 03:10:00,
2013-03-04 21:15:00,29.2,22.9,30.00,ESE,113,2.0,11.8,77,0.00,,,0.00,WUHU216HW,2013-03-05 03:15:00,
2013-03-04 21:20:00,29.2,22.9,30.00,ESE,113,6.9,11.8,77,0.00,,,0.00,WUHU216HW,2013-03-05 03:20:00,
2013-03-04 21:25:00,29.2,22.9,30.00,ESE,113,4.7,12.9,77,0.00,,,0.00,WUHU216HW,2013-03-05 03:25:00,
2013-03-04 21:30:00,29.2,22.9,30.00,ESE,113,7.6,12.9,77,0.00,,,0.00,WUHU216HW,2013-03-05 03:30:00,
2013-03-04 21:35:00,29.2,22.9,30.00,East,90,4.3,10.4,77,0.00,,,0.00,WUHU216HW,2013-03-05 03:35:00,
2013-03-04 21:40:00,29.2,22.9,30.00,SSW,203,4.3,10.6,77,0.00,,,0.00,WUHU216HW,2013-03-05 03:40:00,